Weather History for Poplar Bluff, MO

Change the Weather History Date:

Monday, June 3, 2013

  Actual Average Record
Temperature  
Mean Temperature 68 °F -  
Max Temperature 77 °F 83 °F 99 °F (1944)
Min Temperature 60 °F 61 °F 45 °F (1956)
Cooling Degree Days 2    
Growing Degree Days 18 (Base 50)    
Moisture  
Dew Point 57 °F    
Average Humidity 69    
Maximum Humidity 87    
Minimum Humidity 46    
Precipitation  
Precipitation 0.00 in - - ()
Sea Level Pressure  
Sea Level Pressure 30.00 in    
Wind  
Wind Speed 4 mph (NNE)    
Max Wind Speed 8 mph    
Max Gust Speed -    
Visibility 10 miles    
Events      
Averages and records for this station are not official NWS values.
T = Trace of Precipitation, MM = Missing Value Source: NWS Daily Summary

Daily Weather History Graph

Daily Weather History Graph

Search for Another Location

Airport:

Trip Planner

Search our weather history database for the weather conditions in past years. The results will help you decide how hot, cold, wet, or windy it might be!

Date:

Astronomy

Jun. 03, 2013 Rise Set
Actual Time 5:43 AM CDT 8:16 PM CDT
Civil Twilight 5:12 AM CDT 8:46 PM CDT
Nautical Twilight 4:35 AM CDT 9:24 PM CDT
Astronomical Twilight 3:53 AM CDT 10:05 PM CDT
Moon 2:34 AM CDT (6/3) 3:52 PM CDT (6/3)
Length of Visible Light 15h 33m
Length of Day
14h 33m
Waning Crescent, 22% of the Moon is Illuminated
Jun 3
Waning Crescent
Jun 8
New
Jun 16
First Quarter
Jun 23
Full
Jun 29
Last Quarter

Hourly Weather History & Observations

Time (CDT) Temp. Dew Point Humidity Pressure Visibility Wind Dir Wind Speed Gust Speed Precip Events Conditions
12:53 AM 63.0 °F 57.9 °F 84% 29.99 in 10.0 mi North 3.5 mph - N/A   Mostly Cloudy
1:53 AM 61.0 °F 57.0 °F 87% 29.98 in 10.0 mi NNW 4.6 mph - N/A   Clear
2:53 AM 61.0 °F 55.9 °F 83% 29.98 in 10.0 mi North 5.8 mph - N/A   Clear
3:53 AM 60.1 °F 55.9 °F 86% 29.99 in 10.0 mi North 5.8 mph - N/A   Clear
4:53 AM 60.1 °F 55.9 °F 86% 30.01 in 10.0 mi North 3.5 mph - N/A   Overcast
5:53 AM 60.1 °F 55.9 °F 86% 30.02 in 10.0 mi North 5.8 mph - N/A   Scattered Clouds
6:53 AM 61.0 °F 55.9 °F 83% 30.05 in 10.0 mi North 5.8 mph - N/A   Mostly Cloudy
7:53 AM 64.0 °F 57.0 °F 78% 30.07 in 10.0 mi NNE 4.6 mph - N/A   Mostly Cloudy
8:53 AM 66.9 °F 57.0 °F 70% 30.06 in 10.0 mi NNE 8.1 mph - N/A   Partly Cloudy
9:53 AM 68.0 °F 57.0 °F 68% 30.04 in 10.0 mi NE 8.1 mph - N/A   Scattered Clouds
10:53 AM 71.1 °F 55.9 °F 59% 30.04 in 10.0 mi NE 8.1 mph - N/A   Clear
11:53 AM 72.0 °F 55.9 °F 57% 30.04 in 10.0 mi Variable 4.6 mph - N/A   Overcast
12:53 PM 72.0 °F 55.9 °F 57% 30.03 in 10.0 mi ENE 3.5 mph - N/A   Mostly Cloudy
1:53 PM 73.9 °F 57.0 °F 55% 30.00 in 10.0 mi East 8.1 mph - N/A   Partly Cloudy
2:53 PM 75.9 °F 55.0 °F 48% 29.99 in 10.0 mi Calm Calm - N/A   Mostly Cloudy
3:53 PM 75.9 °F 55.9 °F 50% 29.98 in 10.0 mi NNW 4.6 mph - N/A   Clear
4:53 PM 75.9 °F 54.0 °F 46% 29.97 in 10.0 mi Calm Calm - N/A   Clear
5:53 PM 75.9 °F 55.0 °F 48% 29.96 in 10.0 mi NE 4.6 mph - N/A   Clear
6:53 PM 75.0 °F 54.0 °F 48% 29.96 in 10.0 mi Calm Calm - N/A   Clear
7:53 PM 73.0 °F 57.0 °F 57% 29.96 in 10.0 mi East 3.5 mph - N/A   Clear
8:53 PM 69.1 °F 59.0 °F 70% 29.97 in 10.0 mi ENE 3.5 mph - N/A   Clear
9:53 PM 66.9 °F 60.1 °F 79% 29.99 in 10.0 mi Calm Calm - N/A   Clear
10:53 PM 64.0 °F 60.1 °F 87% 30.00 in 10.0 mi Calm Calm - N/A   Clear
11:53 PM 64.0 °F 59.0 °F 84% 30.01 in 10.0 mi NNE 3.5 mph - N/A   Clear